Radiation Dose at Monitoring Post of Fukushima Daini Nuclear Power Station
Date,Time,MP-1(microSv/h),MP-2(microSv/h),MP-3(microSv/h),MP-4(microSv/h),MP-5(microSv/h),MP-6(microSv/h),MP-7(microSv/h),Wind Direction,Wind Velocity(m/s),Rain
2021/07/12,00:00,0.155,0.144,0.223,0.219,0.224,0.123,0.079,south,2.9,No
2021/07/12,00:10,0.158,0.145,0.226,0.218,0.226,0.122,0.078,south-southwest,2.6,No
2021/07/12,00:20,0.156,0.143,0.225,0.220,0.226,0.122,0.078,south,2.5,No
2021/07/12,00:30,0.156,0.145,0.225,0.219,0.224,0.123,0.078,south,3.0,No
2021/07/12,00:40,0.157,0.144,0.226,0.218,0.227,0.123,0.078,south,2.5,No
2021/07/12,00:50,0.156,0.143,0.224,0.220,0.227,0.122,0.078,south,2.0,No
2021/07/12,01:00,0.157,0.144,0.226,0.218,0.225,0.124,0.077,south,3.2,No
2021/07/12,01:10,0.156,0.144,0.225,0.219,0.228,0.122,0.078,south-southwest,3.2,No
2021/07/12,01:20,0.156,0.145,0.226,0.221,0.226,0.122,0.078,south-southwest,3.2,No
2021/07/12,01:30,0.158,0.143,0.228,0.219,0.228,0.123,0.078,southwest,2.1,No
2021/07/12,01:40,0.157,0.144,0.226,0.220,0.228,0.122,0.078,southwest,1.0,No
2021/07/12,01:50,0.157,0.144,0.226,0.218,0.226,0.123,0.079,west-southwest,0.7,No
2021/07/12,02:00,0.158,0.143,0.226,0.219,0.228,0.123,0.078,west-northwest,1.0,No
2021/07/12,02:10,0.155,0.146,0.224,0.220,0.227,0.122,0.078,west-southwest,0.7,No
2021/07/12,02:20,0.157,0.145,0.226,0.219,0.225,0.124,0.078,-,CALM,No
2021/07/12,02:30,0.157,0.145,0.226,0.221,0.227,0.122,0.077,-,CALM,No
2021/07/12,02:40,0.156,0.144,0.225,0.220,0.227,0.121,0.077,-,CALM,No
2021/07/12,02:50,0.157,0.143,0.226,0.219,0.225,0.123,0.078,north,0.6,Yes
2021/07/12,03:00,0.157,0.144,0.224,0.221,0.229,0.123,0.078,north,0.9,No
2021/07/12,03:10,0.156,0.145,0.226,0.219,0.224,0.122,0.078,north-northeast,0.6,No
2021/07/12,03:20,0.156,0.144,0.225,0.219,0.226,0.123,0.078,-,CALM,No
2021/07/12,03:30,0.156,0.145,0.224,0.220,0.227,0.122,0.078,-,CALM,No
2021/07/12,03:40,0.157,0.144,0.226,0.219,0.225,0.121,0.078,south-southwest,1.0,No
2021/07/12,03:50,0.158,0.145,0.224,0.220,0.227,0.123,0.078,-,CALM,No
2021/07/12,04:00,0.156,0.145,0.227,0.220,0.226,0.123,0.078,-,CALM,No
2021/07/12,04:10,0.157,0.144,0.226,0.217,0.224,0.122,0.078,-,CALM,No
2021/07/12,04:20,0.157,0.145,0.224,0.220,0.229,0.123,0.078,south,0.6,No
2021/07/12,04:30,0.155,0.143,0.226,0.218,0.227,0.123,0.078,-,CALM,No
2021/07/12,04:40,0.158,0.145,0.225,0.219,0.225,0.122,0.078,-,CALM,No
2021/07/12,04:50,0.157,0.145,0.227,0.220,0.227,0.122,0.078,southwest,0.8,No
2021/07/12,05:00,0.156,0.144,0.226,0.219,0.225,0.123,0.078,-,CALM,No
2021/07/12,05:10,0.157,0.145,0.224,0.221,0.226,0.123,0.078,southwest,2.6,No
2021/07/12,05:20,0.156,0.145,0.227,0.219,0.227,0.123,0.078,southwest,1.8,No
2021/07/12,05:30,0.156,0.144,0.225,0.218,0.224,0.121,0.078,west,2.0,No
2021/07/12,05:40,0.158,0.144,0.225,0.221,0.227,0.123,0.078,west-southwest,1.3,No
2021/07/12,05:50,0.157,0.144,0.226,0.219,0.227,0.123,0.079,west,1.8,No
2021/07/12,06:00,0.157,0.145,0.225,0.220,0.226,0.123,0.078,west,2.3,No
2021/07/12,06:10,0.156,0.145,0.226,0.221,0.227,0.123,0.079,west-southwest,1.1,No
2021/07/12,06:20,0.156,0.144,0.226,0.219,0.227,0.123,0.078,-,CALM,No
2021/07/12,06:30,0.156,0.145,0.224,0.220,0.225,0.123,0.078,west-northwest,1.0,No
2021/07/12,06:40,0.158,0.144,0.226,0.220,0.227,0.123,0.078,west-southwest,0.8,No
2021/07/12,06:50,0.156,0.143,0.226,0.219,0.227,0.123,0.079,west-southwest,0.7,No
2021/07/12,07:00,0.155,0.145,0.224,0.217,0.227,0.123,0.079,southwest,0.9,No
2021/07/12,07:10,0.157,0.145,0.227,0.220,0.225,0.122,0.078,south-southwest,2.6,No
2021/07/12,07:20,0.156,0.145,0.227,0.219,0.226,0.123,0.078,south-southwest,2.2,No
2021/07/12,07:30,0.156,0.143,0.224,0.217,0.228,0.123,0.079,south-southwest,2.1,No
2021/07/12,07:40,0.158,0.146,0.225,0.220,0.225,0.122,0.078,southwest,0.9,No
2021/07/12,07:50,0.158,0.145,0.226,0.221,0.225,0.123,0.079,south-southwest,1.9,No
2021/07/12,08:00,0.156,0.145,0.227,0.220,0.225,0.124,0.078,-,CALM,No
2021/07/12,08:10,0.156,0.144,0.227,0.218,0.224,0.122,0.077,south,1.8,No
2021/07/12,08:20,0.158,0.144,0.226,0.219,0.225,0.123,0.078,south,2.6,No
2021/07/12,08:30,0.158,0.143,0.227,0.218,0.225,0.122,0.078,south-southeast,1.8,No
2021/07/12,08:40,0.157,0.144,0.225,0.219,0.226,0.123,0.078,southeast,2.3,No
2021/07/12,08:50,0.156,0.144,0.226,0.219,0.227,0.123,0.078,southeast,2.8,No
2021/07/12,09:00,0.156,0.145,0.227,0.220,0.226,0.124,0.078,east-southeast,2.3,No
2021/07/12,09:10,0.156,0.145,0.228,0.220,0.227,0.124,0.078,east-southeast,2.2,No
2021/07/12,09:20,0.156,0.146,0.227,0.221,0.228,0.123,0.078,south-southeast,1.1,No
2021/07/12,09:30,0.157,0.144,0.227,0.222,0.227,0.123,0.078,south-southeast,2.8,No
2021/07/12,09:40,0.156,0.144,0.227,0.220,0.227,0.124,0.079,south,3.4,No
2021/07/12,09:50,0.155,0.144,0.226,0.221,0.228,0.124,0.079,south-southeast,3.7,No
2021/07/12,10:00,0.156,0.146,0.227,0.221,0.228,0.124,0.079,south-southeast,3.2,No
2021/07/12,10:10,0.157,0.145,0.228,0.220,0.228,0.124,0.079,south-southeast,4.2,No
2021/07/12,10:20,0.157,0.145,0.228,0.222,0.228,0.124,0.079,south-southeast,3.8,No
2021/07/12,10:30,0.156,0.146,0.226,0.222,0.228,0.123,0.079,south-southeast,4.2,No
2021/07/12,10:40,0.156,0.146,0.227,0.222,0.228,0.123,0.078,south-southeast,3.0,No
2021/07/12,10:50,0.158,0.146,0.226,0.221,0.228,0.124,0.079,south-southeast,2.3,No
2021/07/12,11:00,0.157,0.144,0.228,0.221,0.228,0.123,0.079,south,3.4,No
2021/07/12,11:10,0.157,0.145,0.227,0.221,0.229,0.124,0.078,south-southeast,4.3,No
2021/07/12,11:20,0.158,0.144,0.226,0.220,0.227,0.124,0.079,south,3.0,No
2021/07/12,11:30,0.158,0.146,0.228,0.221,0.229,0.128,0.080,south,4.1,Yes
2021/07/12,11:40,0.160,0.149,0.227,0.221,0.229,0.132,0.086,southeast,5.5,Yes
2021/07/12,11:50,0.161,0.150,0.226,0.222,0.231,0.135,0.089,southeast,4.4,Yes
2021/07/12,12:00,0.164,0.152,0.230,0.224,0.235,0.134,0.090,southeast,4.3,Yes
2021/07/12,12:10,0.162,0.149,0.231,0.226,0.235,0.132,0.089,southeast,4.0,No
2021/07/12,12:20,0.160,0.148,0.230,0.223,0.233,0.131,0.087,south,3.7,No
2021/07/12,12:30,0.159,0.147,0.226,0.221,0.230,0.130,0.085,south-southeast,7.3,No
2021/07/12,12:40,0.157,0.147,0.226,0.221,0.228,0.128,0.085,south-southeast,4.5,No
2021/07/12,12:50,0.159,0.146,0.227,0.222,0.231,0.126,0.083,south-southeast,5.4,Yes
2021/07/12,13:00,0.158,0.148,0.227,0.221,0.231,0.127,0.084,south,7.2,Yes
2021/07/12,13:10,0.159,0.149,0.225,0.220,0.228,0.128,0.087,south-southeast,7.9,Yes
2021/07/12,13:20,0.159,0.148,0.226,0.223,0.232,0.127,0.087,south-southeast,6.3,Yes
2021/07/12,13:30,0.160,0.149,0.229,0.223,0.231,0.128,0.088,south-southeast,7.3,Yes
2021/07/12,13:40,0.160,0.149,0.228,0.222,0.230,0.130,0.088,south-southeast,5.4,Yes
2021/07/12,13:50,0.158,0.147,0.225,0.222,0.228,0.127,0.087,south,3.9,No
2021/07/12,14:00,0.160,0.146,0.226,0.223,0.227,0.126,0.085,south-southwest,6.7,No
2021/07/12,14:10,0.159,0.145,0.223,0.221,0.225,0.126,0.083,south,7.6,No
2021/07/12,14:20,0.157,0.145,0.224,0.219,0.226,0.125,0.082,south-southwest,6.3,No
2021/07/12,14:30,0.156,0.144,0.224,0.218,0.226,0.124,0.082,south-southwest,7.3,No
2021/07/12,14:40,0.155,0.145,0.227,0.218,0.228,0.124,0.081,south-southwest,7.7,No
2021/07/12,14:50,0.154,0.146,0.226,0.220,0.229,0.124,0.079,south-southwest,7.9,No
2021/07/12,15:00,0.156,0.145,0.224,0.219,0.228,0.123,0.079,south-southwest,7.6,No
2021/07/12,15:10,0.157,0.143,0.223,0.218,0.226,0.122,0.079,southwest,7.0,No
2021/07/12,15:20,0.156,0.144,0.224,0.218,0.224,0.122,0.079,southwest,7.0,No
2021/07/12,15:30,0.155,0.143,0.227,0.218,0.226,0.122,0.079,south-southwest,6.5,No
2021/07/12,15:40,0.154,0.144,0.224,0.219,0.228,0.122,0.078,south-southwest,7.9,No
2021/07/12,15:50,0.154,0.145,0.224,0.219,0.226,0.121,0.077,southwest,5.5,No
2021/07/12,16:00,0.157,0.144,0.223,0.217,0.225,0.121,0.077,south-southwest,4.7,No
2021/07/12,16:10,0.156,0.144,0.222,0.216,0.224,0.121,0.078,southwest,4.4,No
2021/07/12,16:20,0.155,0.143,0.224,0.216,0.223,0.121,0.077,south-southwest,4.5,No
2021/07/12,16:30,0.154,0.143,0.226,0.218,0.223,0.121,0.078,south,6.1,No
2021/07/12,16:40,0.153,0.145,0.224,0.219,0.227,0.122,0.076,south,6.1,No
2021/07/12,16:50,0.156,0.144,0.222,0.219,0.226,0.121,0.076,south,5.3,No
2021/07/12,17:00,0.155,0.142,0.222,0.217,0.226,0.121,0.078,south,6.5,No
2021/07/12,17:10,0.155,0.143,0.223,0.216,0.224,0.120,0.077,south,6.2,No
2021/07/12,17:20,0.154,0.143,0.227,0.218,0.223,0.122,0.077,south-southwest,5.4,No
2021/07/12,17:30,0.156,0.144,0.224,0.220,0.226,0.121,0.076,south,5.1,No
2021/07/12,17:40,0.157,0.143,0.223,0.219,0.228,0.121,0.077,south-southwest,5.5,No
2021/07/12,17:50,0.156,0.143,0.222,0.217,0.227,0.121,0.078,south-southwest,5.6,No
2021/07/12,18:00,0.155,0.144,0.225,0.218,0.224,0.121,0.077,south-southwest,5.3,No
2021/07/12,18:10,0.155,0.145,0.226,0.221,0.225,0.121,0.077,south-southwest,4.9,No
2021/07/12,18:20,0.157,0.144,0.225,0.219,0.227,0.122,0.078,south,4.1,No
2021/07/12,18:30,0.157,0.143,0.223,0.217,0.227,0.121,0.078,south,3.7,No
2021/07/12,18:40,0.154,0.146,0.226,0.219,0.224,0.122,0.078,south,4.1,No
2021/07/12,18:50,0.156,0.144,0.226,0.221,0.225,0.122,0.077,southwest,3.9,No
2021/07/12,19:00,0.156,0.143,0.224,0.219,0.228,0.121,0.078,southwest,2.8,No
2021/07/12,19:10,0.154,0.144,0.225,0.218,0.227,0.121,0.078,south-southwest,3.2,No
2021/07/12,19:20,0.155,0.145,0.226,0.221,0.225,0.121,0.077,south-southwest,3.1,No
2021/07/12,19:30,0.157,0.143,0.225,0.219,0.226,0.122,0.077,south-southwest,2.8,No
2021/07/12,19:40,0.157,0.145,0.224,0.218,0.229,0.121,0.079,south-southwest,2.0,No
2021/07/12,19:50,0.156,0.145,0.227,0.221,0.228,0.122,0.078,southwest,2.0,No
2021/07/12,20:00,0.157,0.144,0.226,0.221,0.224,0.123,0.077,southwest,1.5,No
2021/07/12,20:10,0.157,0.145,0.225,0.219,0.229,0.123,0.079,southwest,1.7,No
2021/07/12,20:20,0.155,0.146,0.228,0.221,0.228,0.122,0.079,west-southwest,0.8,No
2021/07/12,20:30,0.157,0.144,0.225,0.222,0.226,0.123,0.078,-,CALM,No
2021/07/12,20:40,0.158,0.146,0.227,0.220,0.228,0.123,0.079,-,CALM,No
2021/07/12,20:50,0.156,0.146,0.227,0.222,0.227,0.122,0.079,-,CALM,No
2021/07/12,21:00,0.157,0.144,0.226,0.222,0.226,0.122,0.078,-,CALM,No
2021/07/12,21:10,0.157,0.147,0.228,0.219,0.228,0.122,0.079,north,0.6,No
2021/07/12,21:20,0.155,0.144,0.226,0.220,0.228,0.122,0.078,northeast,0.9,No
2021/07/12,21:30,0.157,0.144,0.225,0.222,0.225,0.123,0.078,-,CALM,No
2021/07/12,21:40,0.158,0.145,0.228,0.219,0.228,0.123,0.078,-,CALM,No
2021/07/12,21:50,0.156,0.144,0.226,0.221,0.228,0.123,0.078,north-northwest,1.2,No
2021/07/12,22:00,0.158,0.145,0.225,0.220,0.225,0.123,0.079,northwest,0.9,No
2021/07/12,22:10,0.157,0.146,0.228,0.219,0.229,0.123,0.078,north-northwest,1.8,No
2021/07/12,22:20,0.156,0.145,0.226,0.222,0.229,0.123,0.078,north-northeast,2.8,No
2021/07/12,22:30,0.158,0.146,0.226,0.220,0.227,0.123,0.079,north-northeast,3.5,No
2021/07/12,22:40,0.157,0.145,0.228,0.220,0.229,0.123,0.078,north,3.5,No
2021/07/12,22:50,0.156,0.144,0.224,0.221,0.227,0.123,0.079,north,4.0,No
2021/07/12,23:00,0.158,0.145,0.227,0.219,0.226,0.124,0.079,north,3.8,No
2021/07/12,23:10,0.157,0.145,0.225,0.222,0.230,0.122,0.079,north-northwest,3.2,No
2021/07/12,23:20,0.156,0.146,0.226,0.221,0.227,0.124,0.080,north-northwest,2.6,No
2021/07/12,23:30,0.158,0.146,0.228,0.219,0.229,0.123,0.079,north-northwest,2.1,No
2021/07/12,23:40,0.157,0.145,0.226,0.222,0.229,0.123,0.079,north-northwest,1.6,No
2021/07/12,23:50,0.157,0.146,0.228,0.220,0.225,0.124,0.079,north,1.4,No
